Regional Weather Roundup
Issued by NWS

Home | Current Version | Previous Version | Graphics & Text | Print | Product List | Glossary On
Versions: 1 2 3 4 5 6 7 8 9 10 11 12 13 14 15 16 17 18 19 20 21 22 23 24 25 26 27 28 29 30 31 32 33 34 35 36 37 38 39 40 41 42 43 44 45 46 47 48 49 50
774
ASUS45 KTFX 260010
RWRMT
MONTANA REGIONAL WEATHER ROUNDUP
NATIONAL WEATHER SERVICE GREAT FALLS MT
600 PM MDT THU AUG 25 2016

NOTE: "FAIR" INDICATES FEW OR NO CLOUDS BELOW 12000 FEET WITH NO
SIGNIFICANT WEATHER AND/OR OBSTRUCTIONS TO VISIBILITY.

MTZ001>007-043-260100-
WEST OF THE DIVIDE

CITY           SKY/WX    TMP DP  RH WIND       PRES   REMARKS
KALISPELL      PTSUNNY   72  43  35 NE17G25   30.12S
MISSOULA       MOSUNNY   77  33  20 N8        30.10F
BUTTE          CLOUDY    66  27  23 N3        30.17F
MULLAN PASS    SUNNY     62  28  27 CALM      30.23F
DEER LODGE       N/A     70  27  19 E9        30.17F
EUREKA           N/A     75  34  22 SW5       30.11F
HAMILTON         N/A     73  30  20 N6        30.09F
LIBBY            N/A     79  32  18 CALM      30.08F
PLAINS           N/A     80  35  19 CALM      30.08F
$$

MTZ008-052>055-260100-
SOUTHWEST MONTANA

CITY           SKY/WX    TMP DP  RH WIND       PRES   REMARKS
BOZEMAN        CLOUDY    67  35  30 NW8       30.14F
DILLON         CLOUDY    69  28  21 NE12      30.13F
W YELLOWSTONE  SUNNY     64  16  15 N7        30.17F
ENNIS          SUNNY     64  28  25 N14G21    30.20S
THREE FORKS      N/A     70  70 100 N3        30.13S
TWIN BRIDGES     N/A     71  26  18 N13       30.11F
$$

MTZ009-010-012-014-046-048-049-054-260100-
EAST SLOPES AND CENTRAL MONTANA

CITY           SKY/WX    TMP DP  RH WIND       PRES   REMARKS
CUT BANK       CLOUDY    63  42  46 NW16      30.20R
GREAT FALLS    MOSUNNY   69  34  27 NW6       30.15F
MALMSTROM AFB  PTSUNNY   67  37  32 MISG      30.15F
HELENA         CLOUDY    71  34  25 E5        30.15S
CHOTEAU          N/A     70  25  18 VRB6G13   30.18F
CONRAD           N/A     71  41  33 N9        30.18S
$$

MTZ011-013-016-021-045-047-050-051-260100-
NORTH CENTRAL MONTANA

CITY           SKY/WX    TMP DP  RH WIND       PRES   REMARKS
HAVRE          CLOUDY    71  38  29 NW6       30.12F
LEWISTOWN      CLOUDY    65  33  30 NW5       30.18S
N BAR RANCH      N/A     63  34  34 CALM      30.20F
CHINOOK          N/A     70  39  32 CALM      30.12F
$$

MTZ017>020-022>027-061-062-260100-
NORTHEAST MONTANA

CITY           SKY/WX    TMP DP  RH WIND       PRES   REMARKS
GLASGOW        SUNNY     73  39  29 NW8       30.10F
JORDAN           N/A     72  34  24 VRB3      30.12F
SIDNEY         CLOUDY    73  40  30 W12       30.10F
WOLF POINT     PTSUNNY   74  39  28 SW8       30.09F
POPLAR           N/A     73  37  27 W6        30.09F
SCOBEY           N/A     67  40  37 W6        30.09S
$$

MTZ028>42-056>058-260100-
SOUTHCENTRAL AND SOUTHEAST MONTANA

CITY           SKY/WX    TMP DP  RH WIND       PRES   REMARKS
BAKER          PTSUNNY   69  40  34 VRB7      30.18F
BILLINGS       MOSUNNY   69  35  28 CALM      30.15F
LIVINGSTON     CLOUDY    68  30  24 E9        30.14F
MILES CITY     SUNNY     70  36  28 S7        30.15F
EKALAKA          N/A     63  37  37 W1        30.16F
FORSYTH          N/A     70  37  30 CALM      30.14F
LAUREL           N/A     70  34  26 CALM      30.13F
ROUNDUP          N/A     68  32  26 W5        30.06S
$$

REGIONAL REPORTS...DAKOTAS

CITY           SKY/WX    TMP DP  RH WIND       PRES   REMARKS
WILLISTON      CLOUDY    74  37  26 W10       30.08F
MINOT          MOSUNNY   74  37  26 W7        30.06F
DICKINSON      MOSUNNY   67  35  30 W7        30.13S
CROSBY           N/A     73  36  25 NW7       30.08F
WATFORD CITY     N/A     72  36  26 NW9       30.10S
BISMARCK       CLOUDY    68  45  43 W9        30.12F
GRAND FORKS    MOSUNNY   69  53  56 W7        30.04S
FARGO          CLOUDY    67  51  56 NW7       30.07S
BUFFALO SD       N/A     68  39  34 NW9       30.12F
RAPID CITY     CLOUDY    67  40  37 NW3       30.21S
$$

REGIONAL REPORTS...WYOMING/IDAHO/WASHINGTON

CITY           SKY/WX    TMP DP  RH WIND       PRES   REMARKS
GILLETTE       PTSUNNY   65  38  36 CALM      30.19F
SHERIDAN       MOSUNNY   68  41  37 S8        30.16F
BUFFALO WY     MOSUNNY   62  41  46 SE10      30.22F
CODY           CLOUDY    63  37  39 E9        30.18S
YELLOWSTONE LA   N/A     59  30  33 CALM      30.23F
IDAHO FALLS    MOSUNNY   76  25  15 CALM      30.06F
SALMON         SUNNY     73  36  25 W6        30.02F
BOISE          SUNNY     83  33  16 NW6       29.98F
SPOKANE        PTSUNNY   82  32  16 NE14      30.06F
$$

REGIONAL REPORTS...ALBERTA

CITY           SKY/WX    TMP DP  RH WIND       PRES   REMARKS
EDMONTON       SUNNY     63  52  67 N13       30.14F
CALGARY        PTSUNNY   59  46  63 NW15G24   30.20F
LETHBRIDGE     PTSUNNY   57  52  82 NW13      30.21R
MEDICINE HAT   CLOUDY    64  50  59 NW18G24   30.13S
$$

REGIONAL REPORTS...SASKATCHEWAN

CITY           SKY/WX    TMP DP  RH WIND       PRES   REMARKS
SWIFT CURRENT  MOSUNNY   64  46  52 W16G23    30.08F
REGINA         PTSUNNY   66  48  52 W8        30.04F
SASKATOON      PTSUNNY   70  52  52 SW9       30.02F
$$




USA.gov is the U.S. government's official web portal to all federal, state and local government web resources and services.